timestamp,surface_pressure_avg,surface_temp_avg,battery_voltage,lat,long
2020-02-07 00:09:01+00:00,307.8247,0.28,12.65,47.84626,-54.09684
2020-02-07 00:19:01+00:00,294.1647,0.3,12.65,47.84626,-54.09684
2020-02-07 00:29:01+00:00,284.2164,0.38,12.65,47.84626,-54.09684
2020-02-07 00:39:01+00:00,278.9647,0.4,12.65,47.84626,-54.09684
2020-02-07 00:49:01+00:00,274.2831,0.4,12.65,47.84626,-54.09684
2020-02-07 00:59:01+00:00,262.0531,0.3,12.65,47.84626,-54.09684
2020-02-07 01:09:01+00:00,254.1014,0.2,12.65,47.84626,-54.09684
2020-02-07 01:19:01+00:00,252.8498,0.18,12.57,47.84626,-54.09684
2020-02-07 01:29:01+00:00,253.7081,0.1,12.57,47.84626,-54.09684
2020-02-07 01:39:01+00:00,252.5048,0.1,12.57,47.84626,-54.09684
2020-02-07 01:49:01+00:00,248.1897,0.0,12.57,47.84626,-54.09684
2020-02-07 01:59:01+00:00,243.8047,0.0,12.57,47.84626,-54.09684
2020-02-07 02:09:01+00:00,238.7148,0.0,12.57,47.84626,-54.09684
2020-02-07 02:19:01+00:00,228.6832,-0.01,12.57,47.84626,-54.09684
2020-02-07 02:29:01+00:00,223.8814,-0.05,12.57,47.84626,-54.09684
2020-02-07 02:39:01+00:00,224.8997,-0.02,12.57,47.84626,-54.09684
2020-02-07 02:49:01+00:00,224.3631,-0.01,12.57,47.84626,-54.09684
2020-02-07 02:59:01+00:00,217.0598,-0.1,12.57,47.84626,-54.09684
2020-02-07 03:09:01+00:00,213.4648,-0.1,12.57,47.84626,-54.09684
2020-02-07 03:19:01+00:00,221.1897,-0.1,12.57,47.84626,-54.09684
2020-02-07 03:29:01+00:00,224.9164,-0.12,12.57,47.84626,-54.09684
2020-02-07 03:39:01+00:00,217.8281,-0.2,12.57,47.84626,-54.09684
2020-02-07 03:49:01+00:00,212.5714,-0.2,12.57,47.84626,-54.09684
2020-02-07 03:59:01+00:00,213.2732,-0.2,12.57,47.84626,-54.09684
2020-02-07 04:09:01+00:00,206.0098,-0.2,12.57,47.84626,-54.09684
2020-02-07 04:19:01+00:00,200.5482,-0.2,12.57,47.84626,-54.09684
2020-02-07 04:29:01+00:00,206.2997,-0.2,12.57,47.84626,-54.09684
2020-02-07 04:39:01+00:00,213.6781,-0.2,12.57,47.84626,-54.09684
2020-02-07 04:49:01+00:00,217.4965,-0.2,12.57,47.84626,-54.09684
2020-02-07 04:59:01+00:00,221.4631,-0.2,12.57,47.84626,-54.09684
2020-02-07 05:09:01+00:00,228.9247,-0.26,12.57,47.84626,-54.09684
2020-02-07 05:19:01+00:00,232.2764,-0.21,12.57,47.84626,-54.09684
2020-02-07 05:29:01+00:00,234.6514,-0.2,12.57,47.84626,-54.09684
2020-02-07 05:39:01+00:00,242.6464,-0.2,12.57,47.84626,-54.09684
2020-02-07 05:49:01+00:00,251.8964,-0.2,12.57,47.84626,-54.09684
2020-02-07 05:59:01+00:00,257.2764,-0.17,12.57,47.84626,-54.09684
2020-02-07 06:09:01+00:00,259.2964,-0.2,12.57,47.84626,-54.09684
2020-02-07 06:19:01+00:00,260.1197,-0.2,12.49,47.84626,-54.09684
2020-02-07 06:29:01+00:00,267.2464,-0.2,12.49,47.84626,-54.09684
2020-02-07 06:39:01+00:00,277.3164,-0.2,12.49,47.84626,-54.09684
2020-02-07 06:49:01+00:00,284.903,-0.3,12.49,47.84626,-54.09684
2020-02-07 06:59:01+00:00,294.3414,-0.5,12.49,47.84626,-54.09684
2020-02-07 07:09:01+00:00,302.8147,-0.6,12.49,47.84626,-54.09684
2020-02-07 07:19:01+00:00,306.9464,-0.64,12.49,47.84626,-54.09684
2020-02-07 07:29:01+00:00,306.718,-0.6,12.49,47.84626,-54.09684
2020-02-07 07:39:01+00:00,311.7747,-0.6,12.49,47.84626,-54.09684
2020-02-07 07:49:01+00:00,320.9496,-0.57,12.49,47.84626,-54.09684
2020-02-07 07:59:01+00:00,333.848,-0.53,12.49,47.84626,-54.09684
2020-02-07 08:09:01+00:00,340.1447,-0.46,12.49,47.84626,-54.09684
2020-02-07 08:19:01+00:00,342.1896,-0.37,12.49,47.84626,-54.09684
2020-02-07 08:29:01+00:00,341.9413,-0.3,12.49,47.84626,-54.09684
2020-02-07 08:39:01+00:00,346.5963,-0.3,12.49,47.84626,-54.09684
2020-02-07 08:49:01+00:00,352.0229,-0.3,12.49,47.84626,-54.09684
2020-02-07 08:59:01+00:00,348.718,-0.3,12.49,47.84626,-54.09684
2020-02-07 09:09:01+00:00,346.2663,-0.3,12.49,47.84626,-54.09684
2020-02-07 09:19:01+00:00,352.1512,-0.3,12.49,47.84626,-54.09684
2020-02-07 09:29:01+00:00,356.583,-0.3,12.49,47.84626,-54.09684
2020-02-07 09:39:01+00:00,349.4062,-0.3,12.49,47.84626,-54.09684
2020-02-07 09:49:01+00:00,345.5213,-0.3,12.49,47.84626,-54.09684
2020-02-07 09:59:01+00:00,352.5947,-0.25,12.49,47.84626,-54.09684
2020-02-07 10:09:01+00:00,348.6846,-0.3,12.49,47.84626,-54.09684
2020-02-07 10:19:01+00:00,343.26800000000014,-0.3,12.49,47.84626,-54.09684
2020-02-07 10:29:01+00:00,352.7479,-0.2,12.49,47.84626,-54.09684
2020-02-07 10:39:01+00:00,363.6896,-0.25,12.49,47.84626,-54.09684
2020-02-07 10:49:01+00:00,362.0696,-0.2,12.49,47.84626,-54.09684
2020-02-07 10:59:01+00:00,358.3196,-0.2,12.49,47.84626,-54.09684
2020-02-07 11:09:01+00:00,366.8279,-0.2,12.49,47.84626,-54.09684
2020-02-07 11:19:01+00:00,370.8646,-0.2,12.49,47.84626,-54.09684
2020-02-07 11:29:01+00:00,369.4228,-0.25,12.49,47.84626,-54.09684
2020-02-07 11:39:01+00:00,365.7479,-0.18,12.49,47.84626,-54.09684
2020-02-07 11:49:01+00:00,360.1945,-0.1,12.49,47.84626,-54.09684
2020-02-07 11:59:01+00:00,352.668,-0.18,12.49,47.84626,-54.09684
2020-02-07 12:09:01+00:00,346.0413,0.0,12.49,47.84626,-54.09684
2020-02-07 12:19:01+00:00,337.0629,0.0,12.49,47.84626,-54.09684
2020-02-07 12:29:01+00:00,330.0364,-0.0,12.49,47.84626,-54.09684
2020-02-07 12:39:01+00:00,327.0297,0.09,12.49,47.84626,-54.09684
2020-02-07 12:49:01+00:00,322.0863,0.1,12.49,47.84626,-54.09684
2020-02-07 12:59:01+00:00,304.4747,0.0,12.49,47.84626,-54.09684
2020-02-07 13:09:01+00:00,301.228,0.05,12.49,47.84626,-54.09684
2020-02-07 13:19:01+00:00,300.2597,0.1,12.65,47.84626,-54.09684
2020-02-07 13:29:01+00:00,285.4297,0.07,12.65,47.84626,-54.09684
2020-02-07 13:39:01+00:00,273.1281,0.1,12.65,47.84626,-54.09684
2020-02-07 13:49:01+00:00,267.1547,0.1,12.65,47.84626,-54.09684
2020-02-07 13:59:01+00:00,260.0114,0.1,12.65,47.84626,-54.09684
2020-02-07 14:09:01+00:00,250.8914,0.1,12.65,47.84626,-54.09684
2020-02-07 14:19:01+00:00,245.7731,0.1,13.05,47.84626,-54.09684
2020-02-07 14:29:01+00:00,241.9948,0.0,13.05,47.84626,-54.09684
2020-02-07 14:39:01+00:00,238.9264,0.04,13.05,47.84626,-54.09684
2020-02-07 14:49:01+00:00,236.8431,0.14,13.05,47.84626,-54.09684
2020-02-07 14:59:01+00:00,236.5148,0.2,13.05,47.84626,-54.09684
2020-02-07 15:09:01+00:00,231.4264,0.2,13.05,47.84626,-54.09684
2020-02-07 15:19:01+00:00,224.3665,0.13,13.44,47.84626,-54.09684
2020-02-07 15:29:01+00:00,214.9481,-0.2,13.44,47.84626,-54.09684
2020-02-07 15:39:01+00:00,210.2664,-0.34,13.44,47.84626,-54.09684
2020-02-07 15:49:01+00:00,203.7431,-0.7,13.44,47.84626,-54.09684
2020-02-07 15:59:01+00:00,193.7065,-0.8,13.44,47.84626,-54.09684
2020-02-07 16:09:01+00:00,189.8815,-0.81,13.44,47.84626,-54.09684
2020-02-07 16:19:01+00:00,186.0848,-0.8,13.29,47.84626,-54.09684
2020-02-07 16:29:01+00:00,186.8382,-0.8,13.29,47.84626,-54.09684
2020-02-07 16:39:01+00:00,192.8965,-0.74,13.29,47.84626,-54.09684
2020-02-07 16:49:01+00:00,198.8198,-0.7,13.29,47.84626,-54.09684
2020-02-07 16:59:01+00:00,205.4198,-0.7,13.29,47.84626,-54.09684
2020-02-07 17:09:01+00:00,206.3198,-0.63,13.29,47.84626,-54.09684
2020-02-07 17:19:01+00:00,207.8731,-0.62,13.29,47.84626,-54.09684
2020-02-07 17:29:01+00:00,208.6714,-0.6,13.29,47.84626,-54.09684
2020-02-07 17:39:01+00:00,210.4881,-0.6,13.29,47.84626,-54.09684
2020-02-07 17:49:01+00:00,208.0164,-0.6,13.29,47.84626,-54.09684
2020-02-07 17:59:01+00:00,207.0281,-0.52,13.29,47.84626,-54.09684
2020-02-07 18:09:01+00:00,219.7997,-0.47,13.29,47.84626,-54.09684
2020-02-07 18:19:01+00:00,230.8748,-0.35,13.37,47.84626,-54.09684
2020-02-07 18:29:01+00:00,232.2548,-0.3,13.37,47.84626,-54.09684
2020-02-07 18:39:01+00:00,236.2147,-0.3,13.37,47.84626,-54.09684
2020-02-07 18:49:01+00:00,237.5981,-0.23,13.37,47.84626,-54.09684
2020-02-07 18:59:01+00:00,249.3731,-0.2,13.37,47.84626,-54.09684
2020-02-07 19:09:01+00:00,256.2131,-0.2,13.37,47.84626,-54.09684
2020-02-07 19:19:01+00:00,259.6031,-0.14,13.13,47.84626,-54.09684
2020-02-07 19:29:01+00:00,261.4014,-0.12,13.13,47.84626,-54.09684
2020-02-07 19:39:01+00:00,257.0181,-0.16,13.13,47.84626,-54.09684
2020-02-07 19:49:01+00:00,257.9548,-0.2,13.13,47.84626,-54.09684
2020-02-07 19:59:01+00:00,269.9231,-0.18,13.13,47.84626,-54.09684
2020-02-07 20:09:01+00:00,283.0414,-0.13,13.13,47.84626,-54.09684
2020-02-07 20:19:01+00:00,289.1697,-0.11,12.89,47.84626,-54.09684
2020-02-07 20:29:01+00:00,293.2531,-0.1,12.89,47.84626,-54.09684
2020-02-07 20:39:01+00:00,301.9114,0.0,12.89,47.84626,-54.09684
2020-02-07 20:49:01+00:00,309.9247,0.12,12.89,47.84626,-54.09684
2020-02-07 20:59:01+00:00,313.0763,0.2,12.89,47.84626,-54.09684
2020-02-07 21:09:01+00:00,312.1229,0.19,12.89,47.84626,-54.09684
2020-02-07 21:19:01+00:00,316.3413,0.19,12.65,47.84626,-54.09684
2020-02-07 21:29:01+00:00,319.9663,0.19,12.65,47.84626,-54.09684
2020-02-07 21:39:01+00:00,323.3646,0.16,12.65,47.84626,-54.09684
2020-02-07 21:49:01+00:00,318.9029,0.18,12.65,47.84626,-54.09684
2020-02-07 21:59:01+00:00,324.3297,0.19,12.65,47.84626,-54.09684
2020-02-07 22:09:01+00:00,324.0797,0.2,12.65,47.84626,-54.09684
2020-02-07 22:19:01+00:00,336.5696,0.2,12.65,47.84626,-54.09684
2020-02-07 22:29:01+00:00,344.6263,0.2,12.65,47.84626,-54.09684
2020-02-07 22:39:01+00:00,342.3881,0.2,12.65,47.84626,-54.09684
2020-02-07 22:49:01+00:00,345.2897,0.2,12.65,47.84626,-54.09684
2020-02-07 22:59:01+00:00,336.3746,0.26,12.65,47.84626,-54.09684
2020-02-07 23:09:01+00:00,328.8879,0.28,12.65,47.84626,-54.09684
2020-02-07 23:19:01+00:00,331.848,0.3,12.57,47.84626,-54.09684
2020-02-07 23:29:01+00:00,346.3613,0.3,12.57,47.84626,-54.09684
2020-02-07 23:39:01+00:00,332.603,0.3,12.57,47.84626,-54.09684
2020-02-07 23:49:01+00:00,318.7214,0.3,12.57,47.84626,-54.09684
2020-02-07 23:59:01+00:00,326.5829,0.4,12.57,47.84626,-54.09684
